This is the latest recevied weather packets stored in our database for station/object OK2ZA-6. If no packets are shown the sender has not sent any weather packets the latest 10 day(s).
| Time | Temp. | Humidity | Pressure | Rain* | Wind** | Luminosity | Snow |
|---|---|---|---|---|---|---|---|
| 1788450004 | 23.33° C | 41% | 1018.8 hPa | 0 mm | - | - | - |
| 1788449404 | 23.33° C | 41% | 1018.9 hPa | 0 mm | - | - | - |
| 1788448804 | 23.33° C | 41% | 1018.9 hPa | 0 mm | - | - | - |
| 1788448204 | 23.33° C | 42% | 1019 hPa | 0 mm | - | - | - |
| 1788447604 | 23.33° C | 41% | 1018.9 hPa | 0 mm | - | - | - |
| 1788447004 | 23.33° C | 41% | 1019 hPa | 0 mm | - | - | - |
| 1788446404 | 23.33° C | 41% | 1019 hPa | 0 mm | - | - | - |
| 1788445804 | 23.89° C | 38% | 1019 hPa | 0 mm | - | - | - |
| 1788445203 | 23.89° C | 39% | 1019 hPa | 0 mm | - | - | - |
| 1788444604 | 23.89° C | 40% | 1019.3 hPa | 0 mm | - | - | - |
| 1788444004 | 23.89° C | 39% | 1019 hPa | 0 mm | - | - | - |
| 1788443404 | 23.89° C | 39% | 1019.1 hPa | 0 mm | - | - | - |
| 1788442804 | 23.89° C | 37% | 1019.1 hPa | 0 mm | - | - | - |
| 1788442204 | 23.89° C | 38% | 1019.1 hPa | 0 mm | - | - | - |
| 1788441603 | 24.44° C | 37% | 1019.2 hPa | 0 mm | - | - | - |
| 1788441004 | 24.44° C | 42% | 1019.2 hPa | 0 mm | - | - | - |
| 1788440404 | 24.44° C | 43% | 1019.1 hPa | 0 mm | - | - | - |
| 1788439804 | 23.89° C | 44% | 1019.2 hPa | 0 mm | - | - | - |
| 1788439204 | 23.89° C | 45% | 1019.2 hPa | 0 mm | - | - | - |
| 1788438604 | 23.89° C | 45% | 1019.3 hPa | 0 mm | - | - | - |
| 1788438004 | 23.89° C | 44% | 1019.4 hPa | 0 mm | - | - | - |
| 1788437404 | 23.89° C | 45% | 1019.5 hPa | 0 mm | - | - | - |
| 1788436804 | 23.89° C | 44% | 1019.7 hPa | 0 mm | - | - | - |
| 1788436204 | 23.33° C | 45% | 1019.9 hPa | 0 mm | - | - | - |
| 1788435604 | 23.89° C | 43% | 1020 hPa | 0 mm | - | - | - |
* Rain latest hour (hover to see other rain measurements)
** Current wind speed in m/s (hover to see current wind gust speed)